Location: Crescent
(42.8242°N, 73.7329°W)
Time: 20:22:14
(UTC+00:00)

SR - Pass Details

Date: 25 February 2026
Orbit: 573 x 848 km, 66.7° (Epoch: 6 March)

Event Time Altitude Azimuth Distance (km) Brightness Sun altitude
Rises 15:02:42 0° 338° (NNW) 3,078 ? 30.9°
Reaches altitude 10° 15:05:23 10° 352° (N) 2,208 ? 31.2°
Maximum altitude 15:09:30 24° 47° (NE) 1,519 ? 31.6°
Drops below altitude 10° 15:13:49 10° 100° (E) 2,344 ? 32.1°
Sets 15:16:45 0° 114° (ESE) 3,312 ? 32.4°
